Regional Weather Roundup
Issued by NWS Goodland, KS

Home | Current Version | Previous Version | Graphics & Text | Print | Product List | Glossary On
Versions: 1 2 3 4 5 6 7 8 9 10 11 12 13 14 15 16 17 18 19 20 21 22 23 24 25 26 27 28 29 30 31 32 33 34 35 36 37 38 39 40 41 42 43 44 45 46 47 48 49 50
000
ASUS43 KGLD 161659
RWRGLD

GOODLAND FORECAST AREA HOURLY WEATHER ROUNDUP
NATIONAL WEATHER SERVICE GOODLAND KS
1100 AM MDT TUE SEP 16 2014

...OFFICIAL OBSERVATIONS...

CITY           SKY/WX    TMP DP  RH WIND       PRES   REMARKS
GOODLAND KS    SUNNY     69  54  58 SW15      30.13F
HILL CITY KS   CLOUDY    63  53  70 S9        30.16F
IMPERIAL NEB   SUNNY     69  54  58 S17G25    30.07F
MCCOOK NEB     CLOUDY    65  54  67 S17       30.11F
AKRON CO       SUNNY     75  50  41 W15       30.13F
BURLINGTON CO  SUNNY     70  53  54 S12       30.14F
LIMON CO       SUNNY    N/A N/A N/A MISG      30.19
$$

...UNOFFICIAL OBSERVATIONS...

CITY           SKY/WX    TMP DP  RH WIND       PRES   REMARKS
COLBY KS       CLOUDY    64  57  77 S15G21    30.14F
NORTON KS      CLOUDY    61  50  67 SE10      30.13F
SHARON SPRINGS   N/A     69  58  68 SW10G18     N/A
WAKEENEY KS      N/A     60  52  75 MISG        N/A
TRENTON NEB      N/A     65  32  29 S16         N/A
YUMA CO          N/A     72  56  56 CALM        N/A
$$


USA.gov is the U.S. government's official web portal to all federal, state and local government web resources and services.